NOAA 16 DEB

Satellite information

Favourite Embed

Satellite Type and Status

DEBRISIN ORBIT

Key statistics

Satellite NOAA 16 DEB at a glance.

Uptime

8995

Days in orbit

Revolutions

≈ 14.2

Per day

Orbit

SSO

Sun Synchronous Orbit

Inclination

98.7

Latest

Satellite identification and parameters

Extended collection of information and parameters for NOAA 16 DEB.

Object identification

Identified? True

Debris? True

Object name: NOAA 16 DEB

International designator: 2000-055FS

Object number (NORAD): 41266

Object ID (CCSDS): 41266

Country: UNITED STATES OF AMERICA (US)

Current information (Y/N): Y

RCS size: SMALL

Orbital parameters

Period: 101.054 minutes

Inclination: 98.6722 deg

SMA: 7186.695 km

Apoapsis: 813.465 km

Periapsis: 803.655 km

RAAN: 192.333 deg

Eccentricy: 0.0006825

Argument of periapsis: 134.2192 deg

Mean anomaly: 225.9549 deg

Mean motion: 14.24980571 rev/day

Mean motion (dot): 0.00004197 rev/day2

B* drag term: 0.0018113 1/REarth

Two-line elements (TLE)

Creation date: May 8, 2025, 3:01 a.m.

Reference frame: TEME

Reference center: EARTH

Epoch: May 6, 2025, 11:04 p.m. UTC

TLE line 0: 0 NOAA 16 DEB

TLE line 1: 1 41266U 00055FS 25126.96166480 .00004197 00000-0 18113-2 0 9992

TLE line 2: 2 41266 98.6722 192.3330 0006825 134.2192 225.9549 14.24980571482370

Live tracking on map

Real-time ground track for satellite NOAA 16 DEB.

In-orbit conjunctions

A list of the most updated potential collisions computed for object NOAA 16 DEB.

Target Orbit TCA Probability of collision Miss distance Type
CZ-6A DEB LEO 2025-01-21 22:53:36 0.000116126 382.0 (m) DEBRIS
CZ-6A DEB LEO 2025-01-21 18:40:34 0.0001281738 183.0 (m) DEBRIS
COSMOS 1275 DEB LEO 2024-11-10 09:18:58 0.001771426 209.0 (m) DEBRIS
COSMOS 2251 DEB LEO 2024-11-09 02:09:45 0.0003016101 565.0 (m) DEBRIS
FENGYUN 1C DEB SSO 2024-09-25 02:06:11 0.0003819204 881.0 (m) DEBRIS

Associated space launch

The NOAA K, L and M POES satellites begin the fifth generation of improved environmental monitoring in support of NOAA missions. The instrument payload has significant improvements and additions/deletions. The instrument changes have effected the spacecraft subsystems and data formats.

NOAA 16 DEB was lifted into orbit during the mission ‘Titan II SLV | NOAA 16’, on board a Titan II SLV space rocket.

The launch took place on Sept. 21, 2000, 10:22 a.m. from Space Launch Complex 4W.

For more information about the launch, click the button.

Launch to space Titan II SLV | NOAA 16
Titan II SLV | NOAA 16

Agency: N/A

Status: Launch Successful

Launch date: Sept. 21, 2000, 10:22 a.m. UTC

Rocket: Titan II SLV

Launch pad: Space Launch Complex 4W

Location: Vandenberg SFB, CA, USA

...

Latest news about this satellite

There are no fresh news available about this satellite. Check back as we update our databases every day.


Newsletter sign-up

Weekly statistics, charts and insights to help you stay on top of the space industry.